EN

Hourly Weather Abramivs'ka Dolyna

Today, 30 November, Monday

Time Temperature Precipitation Wind Pressure Humidity
00:00 -1°C° 0 mm 0 mps 747 mmHg 87%
01:00 -1°C° 0 mm 0 mps 748 mmHg 87%
02:00 0°C° 0 mm 1 mps 748 mmHg 87%
03:00 0°C° 0 mm 1 mps 748 mmHg 87%
04:00 -1°C° 0 mm 1 mps 748 mmHg 87%
05:00 -1°C° 0 mm 1 mps 748 mmHg 87%
06:00 -1°C° 0 mm 1 mps 748 mmHg 87%
07:00 -1°C° 0 mm 1 mps 748 mmHg 87%
08:00 -1°C° 0 mm 1 mps 749 mmHg 88%
09:00 0°C° 0 mm 1 mps 749 mmHg 82%
10:00 +1°C° 0 mm 1 mps 749 mmHg 76%
11:00 +1°C° 0 mm 2 mps 750 mmHg 70%
12:00 +1°C° 0 mm 2 mps 750 mmHg 69%
13:00 +1°C° 0 mm 3 mps 749 mmHg 67%
14:00 +1°C° 0 mm 3 mps 749 mmHg 66%
15:00 0°C° 0 mm 3 mps 749 mmHg 70%
16:00 -1°C° 0 mm 2 mps 750 mmHg 75%
17:00 -2°C° 0 mm 2 mps 750 mmHg 80%
18:00 -2°C° 0 mm 2 mps 750 mmHg 81%
19:00 -3°C° 0 mm 2 mps 750 mmHg 82%
20:00 -3°C° 0 mm 2 mps 750 mmHg 84%
21:00 -3°C° 0 mm 2 mps 750 mmHg 85%
22:00 -3°C° 0 mm 2 mps 750 mmHg 86%
23:00 -4°C° 0 mm 2 mps 750 mmHg 87%

Tomorrow, 1 December, Tuesday

Time Temperature Precipitation Wind Pressure Humidity
00:00 -4°C° 0 mm 2 mps 750 mmHg 87%
01:00 -4°C° 0 mm 2 mps 750 mmHg 87%
02:00 -4°C° 0 mm 2 mps 750 mmHg 87%
03:00 -4°C° 0 mm 2 mps 750 mmHg 88%
04:00 -4°C° 0 mm 2 mps 750 mmHg 89%
05:00 -5°C° 0 mm 3 mps 750 mmHg 90%
06:00 -6°C° 0 mm 3 mps 750 mmHg 90%
07:00 -6°C° 0 mm 3 mps 750 mmHg 91%
08:00 -6°C° 0 mm 3 mps 750 mmHg 92%
09:00 -5°C° 0 mm 3 mps 750 mmHg 85%
10:00 -2°C° 0 mm 3 mps 750 mmHg 77%
11:00 -2°C° 0 mm 4 mps 750 mmHg 70%
12:00 -2°C° 0 mm 4 mps 750 mmHg 68%
13:00 -1°C° 0 mm 4 mps 750 mmHg 66%
14:00 -1°C° 0 mm 4 mps 750 mmHg 64%
15:00 -2°C° 0 mm 4 mps 749 mmHg 69%
16:00 -2°C° 0 mm 3 mps 749 mmHg 74%
17:00 -2°C° 0 mm 3 mps 749 mmHg 79%
18:00 -4°C° 0 mm 3 mps 749 mmHg 82%
19:00 -4°C° 0 mm 3 mps 749 mmHg 84%
20:00 -4°C° 0 mm 4 mps 750 mmHg 87%
21:00 -4°C° 0 mm 3 mps 750 mmHg 89%
22:00 -4°C° 0 mm 3 mps 749 mmHg 91%
23:00 -4°C° 0 mm 3 mps 749 mmHg 94%

Day after tomorrow, 2 December, Wednesday

Time Temperature Precipitation Wind Pressure Humidity
00:00 -4°C° 0 mm 3 mps 749 mmHg 94%
01:00 -2°C° 0 mm 2 mps 749 mmHg 95%
02:00 -2°C° 0 mm 2 mps 749 mmHg 95%
03:00 -2°C° 0.1 mm 2 mps 749 mmHg 96%
04:00 -2°C° 0.1 mm 2 mps 749 mmHg 97%
05:00 -1°C° 0.1 mm 2 mps 749 mmHg 97%
06:00 -1°C° 0.1 mm 2 mps 749 mmHg 97%
07:00 -1°C° 0.1 mm 2 mps 749 mmHg 98%
08:00 -1°C° 0.1 mm 2 mps 749 mmHg 98%
09:00 -1°C° 0 mm 2 mps 749 mmHg 95%
10:00 -1°C° 0 mm 2 mps 749 mmHg 92%
11:00 +1°C° 0 mm 2 mps 749 mmHg 89%
12:00 +1°C° 0 mm 2 mps 748 mmHg 90%
13:00 +2°C° 0 mm 1 mps 748 mmHg 90%
14:00 +2°C° 0 mm 1 mps 748 mmHg 91%
15:00 +1°C° 0 mm 1 mps 748 mmHg 92%
16:00 +1°C° 0 mm 1 mps 748 mmHg 92%
17:00 +1°C° 0 mm 1 mps 747 mmHg 93%
18:00 +1°C° 0 mm 1 mps 747 mmHg 92%
19:00 +1°C° 0 mm 1 mps 748 mmHg 92%
20:00 +1°C° 0 mm 1 mps 748 mmHg 92%
21:00 0°C° 0 mm 1 mps 748 mmHg 92%
22:00 0°C° 0 mm 1 mps 748 mmHg 93%
23:00 0°C° 0 mm 1 mps 748 mmHg 93%

3 December, Thursday

Time Temperature Precipitation Wind Pressure Humidity
00:00 0°C° 0 mm 1 mps 747 mmHg 93%
01:00 0°C° 0 mm 1 mps 747 mmHg 94%
02:00 -1°C° 0 mm 1 mps 747 mmHg 94%
03:00 -1°C° 0 mm 1 mps 747 mmHg 94%
04:00 -1°C° 0 mm 1 mps 747 mmHg 94%
05:00 -1°C° 0 mm 1 mps 747 mmHg 95%
06:00 -1°C° 0 mm 1 mps 747 mmHg 94%
07:00 -3°C° 0 mm 2 mps 747 mmHg 94%
08:00 -3°C° 0 mm 2 mps 747 mmHg 94%
09:00 -2°C° 0 mm 2 mps 747 mmHg 91%
10:00 -2°C° 0 mm 3 mps 747 mmHg 88%
11:00 -2°C° 0 mm 4 mps 747 mmHg 85%
12:00 -2°C° 0 mm 4 mps 747 mmHg 84%
13:00 -2°C° 0 mm 4 mps 747 mmHg 83%
14:00 -2°C° 0 mm 4 mps 747 mmHg 82%
15:00 -1°C° 0 mm 3 mps 746 mmHg 83%
16:00 -1°C° 0 mm 3 mps 746 mmHg 84%
17:00 -1°C° 0 mm 3 mps 746 mmHg 85%
18:00 -1°C° 0 mm 3 mps 746 mmHg 85%
19:00 -2°C° 0 mm 4 mps 746 mmHg 84%
20:00 -1°C° 0 mm 4 mps 746 mmHg 84%
21:00 -1°C° 0 mm 4 mps 746 mmHg 86%
22:00 -1°C° 0 mm 4 mps 746 mmHg 88%
23:00 -1°C° 0 mm 4 mps 746 mmHg 90%

4 December, Friday

Time Temperature Precipitation Wind Pressure Humidity
00:00 0°C° 0 mm 4 mps 745 mmHg 91%
01:00 0°C° 0 mm 5 mps 745 mmHg 92%
02:00 +1°C° 0 mm 5 mps 745 mmHg 94%
03:00 +1°C° 0 mm 5 mps 745 mmHg 92%
04:00 +1°C° 0 mm 6 mps 744 mmHg 91%
05:00 +2°C° 0 mm 6 mps 744 mmHg 90%
06:00 +2°C° 0 mm 7 mps 744 mmHg 89%
07:00 +2°C° 0 mm 7 mps 744 mmHg 88%
08:00 +2°C° 0 mm 7 mps 744 mmHg 87%
09:00 +1°C° 0 mm 8 mps 744 mmHg 84%
10:00 +2°C° 0 mm 8 mps 744 mmHg 81%
11:00 +4°C° 0 mm 8 mps 744 mmHg 78%
12:00 +4°C° 0 mm 8 mps 744 mmHg 78%
13:00 +4°C° 0 mm 8 mps 744 mmHg 79%
14:00 +4°C° 0 mm 8 mps 743 mmHg 80%
15:00 +4°C° 0 mm 8 mps 743 mmHg 82%
16:00 +2°C° 0 mm 8 mps 743 mmHg 85%
17:00 +3°C° 0 mm 7 mps 743 mmHg 88%
18:00 +2°C° 0 mm 8 mps 743 mmHg 87%
19:00 +2°C° 0 mm 8 mps 743 mmHg 86%
20:00 +2°C° 0 mm 8 mps 743 mmHg 85%
21:00 +3°C° 0 mm 7 mps 743 mmHg 86%
22:00 +3°C° 0 mm 7 mps 744 mmHg 87%
23:00 +2°C° 0 mm 7 mps 744 mmHg 88%

5 December, Saturday

Time Temperature Precipitation Wind Pressure Humidity
00:00 +2°C° 0 mm 7 mps 743 mmHg 89%
01:00 +2°C° 0 mm 6 mps 743 mmHg 90%
02:00 +3°C° 0 mm 6 mps 743 mmHg 90%
03:00 +3°C° 0 mm 6 mps 743 mmHg 91%
04:00 +3°C° 0 mm 6 mps 743 mmHg 92%
05:00 +3°C° 0 mm 6 mps 743 mmHg 93%
06:00 +3°C° 0 mm 6 mps 743 mmHg 92%
07:00 +4°C° 0 mm 7 mps 743 mmHg 92%
08:00 +4°C° 0 mm 7 mps 743 mmHg 91%
09:00 +4°C° 0.2 mm 7 mps 743 mmHg 91%
10:00 +4°C° 0.2 mm 7 mps 743 mmHg 90%
11:00 +4°C° 0.2 mm 8 mps 743 mmHg 90%
12:00 +4°C° 0.2 mm 8 mps 743 mmHg 89%
13:00 +4°C° 0.2 mm 7 mps 743 mmHg 88%
14:00 +4°C° 0.2 mm 7 mps 743 mmHg 88%
15:00 +4°C° 0.1 mm 7 mps 743 mmHg 88%
16:00 +4°C° 0.1 mm 7 mps 743 mmHg 88%
17:00 +4°C° 0.1 mm 7 mps 743 mmHg 88%
18:00 +4°C° 0 mm 7 mps 743 mmHg 88%
19:00 +4°C° 0 mm 7 mps 743 mmHg 87%
20:00 +4°C° 0 mm 7 mps 743 mmHg 87%
21:00 +3°C° 0 mm 7 mps 743 mmHg 87%
22:00 +3°C° 0 mm 7 mps 743 mmHg 87%
23:00 +3°C° 0 mm 7 mps 743 mmHg 87%
Show more